Location: Brno
(49.2000°N, 16.6330°E)
Time: 14:37:36
(UTC+02:00)

BREEZE M DEB (TANK) - Visible Passes

Search period start: 30 June 2015 00:00
Search period end: 10 July 2015 00:00
Orbit: 287 x 12111 km, 49.5° (Epoch: 27 June)

Date Brightness Start Highest point End Pass type
(mag) Time Alt. Az. Time Alt. Az. Time Alt. Az.
30 Jun 9.5 23:14:15 10° WNW 23:58:10 13° W 00:14:19 10° WSW visible
01 Jul 9.4 22:29:41 10° WNW 23:18:49 19° W 23:52:29 10° WSW visible
02 Jul 9.3 21:47:49 10° WNW 22:38:44 25° WSW 23:25:41 10° SW visible
03 Jul 9.2 21:07:15 10° WNW 21:58:00 31° WSW 22:55:41 10° SW visible
04 Jul 9.1 20:27:25 10° WNW 21:16:43 37° WSW 22:23:19 10° SSW visible
05 Jul 9.1 19:48:05 10° WNW 20:34:58 43° WSW 21:49:09 10° SSW visible
08 Jul 9.7 22:13:22 10° WNW 22:54:03 13° W 23:09:38 10° WSW visible
09 Jul 9.5 21:28:50 10° WNW 22:14:06 19° WSW 22:47:45 10° WSW visible
